This is the latest recevied weather packets stored in our database for station/object KD4MBW. If no packets are shown the sender has not sent any weather packets the latest 10 day(s).
| Time | Temp. | Humidity | Pressure | Rain* | Wind** | Luminosity | Snow |
|---|---|---|---|---|---|---|---|
| 1778248586 | 21.11° C | 91% | 1015.8 hPa | 0 mm | - | 75 W/m² | - |
| 1778248282 | 21.11° C | 91% | 1015.8 hPa | 0 mm | - | 78 W/m² | - |
| 1778247980 | 21.11° C | 92% | 1016 hPa | 0 mm | - | 64 W/m² | - |
| 1778247677 | 21.11° C | 91% | 1015.7 hPa | 0 mm | - | 83 W/m² | - |
| 1778247373 | 21.11° C | 91% | 1015.8 hPa | 0 mm | - | 94 W/m² | - |
| 1778247070 | 21.11° C | 91% | 1015.8 hPa | 0 mm | - | 69 W/m² | - |
| 1778246763 | 21.11° C | 92% | 1016 hPa | 0 mm | - | 95 W/m² | - |
| 1778246459 | 21.11° C | 92% | 1015.6 hPa | 0 mm | - | 187 W/m² | - |
| 1778246155 | 21.11° C | 92% | 1015.6 hPa | 0 mm | - | 115 W/m² | - |
| 1778245852 | 21.11° C | 93% | 1015.9 hPa | 0 mm | - | 169 W/m² | - |
| 1778245549 | 21.11° C | 93% | 1016 hPa | 0 mm | - | 113 W/m² | - |
| 1778245245 | 21.11° C | 93% | 1016.1 hPa | 0 mm | - | 64 W/m² | - |
| 1778244940 | 20.56° C | 94% | 1016.1 hPa | 0 mm | - | 42 W/m² | - |
| 1778244638 | 20.56° C | 94% | 1016 hPa | 0 mm | - | 42 W/m² | - |
| 1778244336 | 20.56° C | 94% | 1016.2 hPa | 0 mm | - | 62 W/m² | - |
| 1778244033 | 21.11° C | 94% | 1016.1 hPa | 0 mm | - | 60 W/m² | - |
| 1778243731 | 21.11° C | 94% | 1015.9 hPa | 0 mm | - | 30 W/m² | - |
| 1778243428 | 21.11° C | 94% | 1015.9 hPa | 0 mm | - | 29 W/m² | - |
| 1778243125 | 21.11° C | 94% | 1016 hPa | 0 mm | - | 23 W/m² | - |
| 1778242821 | 21.11° C | 95% | 1015.8 hPa | 0 mm | - | 34 W/m² | - |
| 1778242520 | 21.11° C | 95% | 1015.8 hPa | 0 mm | - | 29 W/m² | - |
| 1778242218 | 21.11° C | 95% | 1015.8 hPa | 0 mm | - | 24 W/m² | - |
| 1778241914 | 21.11° C | 95% | 1015.5 hPa | 0 mm | - | 18 W/m² | - |
| 1778241613 | 21.11° C | 95% | 1015.2 hPa | 0 mm | - | 51 W/m² | - |
| 1778241311 | 20.56° C | 96% | 1015.2 hPa | 0 mm | - | 50 W/m² | - |
* Rain latest hour (hover to see other rain measurements)
** Current wind speed in m/s (hover to see current wind gust speed)